Time,TemperatureF,DewpointF,PressureIn,WindDirection,WindDirectionDegrees,WindSpeedMPH,WindSpeedGustMPH,Humidity,HourlyPrecipIn,Conditions,Clouds,dailyrainin,SoftwareType,DateUTC
2013-02-21 00:00:00,46.9,29.7,30.03,SSE,155,0.0,0.0,51,0.00,CLR,,0.00,WeatherDisplay:10.37,2013-02-21 05:00:00,
2013-02-21 00:20:00,46.4,29.7,30.03,SSE,155,0.0,0.0,52,0.00,CLR,,0.00,WeatherDisplay:10.37,2013-02-21 05:20:00,
2013-02-21 00:30:00,45.7,29.5,30.03,SSE,155,0.0,0.0,53,0.00,CLR,,0.00,WeatherDisplay:10.37,2013-02-21 05:30:00,
2013-02-21 00:40:00,45.7,30.0,30.03,SSE,155,0.0,0.0,54,0.00,CLR,,0.00,WeatherDisplay:10.37,2013-02-21 05:40:00,
2013-02-21 00:50:00,45.1,29.5,30.03,SSE,155,0.0,0.0,54,0.00,CLR,,0.00,WeatherDisplay:10.37,2013-02-21 05:50:00,
2013-02-21 00:55:00,45.0,29.8,30.03,SSE,155,0.0,0.0,55,0.00,CLR,,0.00,WeatherDisplay:10.37,2013-02-21 05:55:00,
2013-02-21 01:05:00,45.0,29.8,30.03,SSE,155,0.0,0.0,55,0.00,CLR,,0.00,WeatherDisplay:10.37,2013-02-21 06:05:00,
2013-02-21 01:10:00,45.5,30.7,30.03,SSE,155,0.0,0.0,56,0.00,CLR,,0.00,WeatherDisplay:10.37,2013-02-21 06:10:00,
2013-02-21 01:20:00,44.8,30.0,30.03,SSE,155,0.0,0.0,56,0.00,CLR,,0.00,WeatherDisplay:10.37,2013-02-21 06:20:00,
2013-02-21 01:30:00,44.4,30.1,30.03,SSE,155,0.0,0.0,57,0.00,CLR,,0.00,WeatherDisplay:10.37,2013-02-21 06:30:00,
2013-02-21 01:40:00,45.0,30.2,30.00,SSE,155,0.0,0.0,56,0.00,CLR,,0.00,WeatherDisplay:10.37,2013-02-21 06:40:00,
2013-02-21 01:50:00,45.1,30.8,30.00,SSE,155,0.0,0.0,57,0.00,CLR,,0.00,WeatherDisplay:10.37,2013-02-21 06:50:00,
2013-02-21 02:00:00,44.2,30.4,30.00,SSE,155,0.0,0.0,58,0.00,CLR,,0.00,WeatherDisplay:10.37,2013-02-21 07:00:00,
2013-02-21 02:05:00,44.1,30.2,30.00,SSE,155,0.0,0.0,58,0.00,CLR,,0.00,WeatherDisplay:10.37,2013-02-21 07:05:00,
2013-02-21 02:10:00,44.4,30.6,30.00,SSE,155,0.0,0.0,58,0.00,CLR,,0.00,WeatherDisplay:10.37,2013-02-21 07:10:00,
2013-02-21 02:20:00,43.7,29.9,30.00,SSE,155,0.0,0.0,58,0.00,CLR,,0.00,WeatherDisplay:10.37,2013-02-21 07:20:00,
2013-02-21 02:30:00,44.2,30.8,30.00,SSE,155,0.0,0.0,59,0.00,CLR,,0.00,WeatherDisplay:10.37,2013-02-21 07:30:00,
2013-02-21 02:40:00,43.7,30.7,30.00,SSE,155,0.0,0.0,60,0.00,CLR,,0.00,WeatherDisplay:10.37,2013-02-21 07:40:00,
2013-02-21 02:50:00,43.9,31.7,30.00,SSE,155,0.0,0.0,62,0.00,CLR,,0.00,WeatherDisplay:10.37,2013-02-21 07:50:00,
2013-02-21 03:00:00,43.9,32.5,30.00,SSE,155,0.0,0.0,64,0.00,CLR,,0.00,WeatherDisplay:10.37,2013-02-21 08:00:00,
2013-02-21 03:05:00,44.4,33.8,30.00,SSE,155,0.0,0.0,66,0.00,CLR,,0.00,WeatherDisplay:10.37,2013-02-21 08:05:00,
2013-02-21 03:10:00,44.4,34.5,30.00,SSE,155,0.0,0.0,68,0.00,CLR,,0.00,WeatherDisplay:10.37,2013-02-21 08:10:00,
2013-02-21 03:20:00,43.9,34.0,30.00,SSE,155,0.0,0.0,68,0.00,CLR,,0.00,WeatherDisplay:10.37,2013-02-21 08:20:00,
2013-02-21 03:30:00,44.1,34.9,30.00,SSE,155,0.0,0.0,70,0.00,CLR,,0.00,WeatherDisplay:10.37,2013-02-21 08:30:00,
2013-02-21 03:40:00,43.9,34.7,30.00,SSE,155,0.0,0.0,70,0.00,CLR,,0.00,WeatherDisplay:10.37,2013-02-21 08:40:00,
2013-02-21 03:50:00,44.6,35.8,30.00,SSE,155,0.0,0.0,71,0.00,CLR,,0.00,WeatherDisplay:10.37,2013-02-21 08:50:00,
2013-02-21 04:00:00,44.8,36.7,30.00,SSE,155,0.0,0.0,73,0.00,CLR,,0.00,WeatherDisplay:10.37,2013-02-21 09:00:00,
2013-02-21 04:05:00,45.0,37.2,30.00,SSE,155,0.0,0.0,74,0.00,CLR,,0.00,WeatherDisplay:10.37,2013-02-21 09:05:00,
2013-02-21 04:10:00,45.0,37.2,30.00,SSE,155,0.0,0.0,74,0.00,CLR,,0.00,WeatherDisplay:10.37,2013-02-21 09:10:00,
2013-02-21 04:20:00,44.1,36.3,30.00,SSE,155,0.0,0.0,74,0.00,CLR,,0.00,WeatherDisplay:10.37,2013-02-21 09:20:00,
2013-02-21 04:30:00,43.9,36.1,30.00,SSE,155,0.0,0.0,74,0.00,CLR,,0.00,WeatherDisplay:10.37,2013-02-21 09:30:00,
2013-02-21 04:40:00,43.2,35.1,30.00,SSE,155,0.0,0.0,73,0.00,CLR,,0.00,WeatherDisplay:10.37,2013-02-21 09:40:00,
2013-02-21 04:50:00,43.5,36.1,30.00,SSE,155,0.0,0.0,75,0.00,CLR,,0.00,WeatherDisplay:10.37,2013-02-21 09:50:00,
2013-02-21 05:00:00,43.3,35.9,30.00,SSE,155,0.0,0.0,75,0.00,CLR,,0.00,WeatherDisplay:10.37,2013-02-21 10:00:00,
2013-02-21 05:05:00,43.3,36.3,30.00,South,185,0.0,0.0,76,0.00,CLR,,0.00,WeatherDisplay:10.37,2013-02-21 10:05:00,
2013-02-21 05:10:00,43.3,36.3,30.00,SW,214,0.0,0.0,76,0.00,CLR,,0.00,WeatherDisplay:10.37,2013-02-21 10:10:00,
2013-02-21 05:20:00,43.2,36.4,30.00,SW,235,0.0,0.0,77,0.00,CLR,,0.00,WeatherDisplay:10.37,2013-02-21 10:20:00,
2013-02-21 05:25:00,43.0,36.3,30.00,SW,235,0.0,0.0,77,0.00,CLR,,0.00,WeatherDisplay:10.37,2013-02-21 10:25:00,
2013-02-21 05:30:00,43.0,36.3,30.00,SW,235,0.0,0.0,77,0.00,CLR,,0.00,WeatherDisplay:10.37,2013-02-21 10:30:00,
2013-02-21 05:40:00,43.2,36.8,30.00,SW,235,0.0,0.0,78,0.00,CLR,,0.00,WeatherDisplay:10.37,2013-02-21 10:40:00,
2013-02-21 05:50:00,43.0,36.9,30.00,SW,235,0.0,0.0,79,0.00,CLR,,0.00,WeatherDisplay:10.37,2013-02-21 10:50:00,
2013-02-21 06:00:00,42.6,36.6,30.00,SW,235,0.0,0.0,79,0.00,CLR,,0.00,WeatherDisplay:10.37,2013-02-21 11:00:00,
2013-02-21 06:10:00,42.6,36.6,30.00,SW,235,0.0,0.0,79,0.00,CLR,,0.00,WeatherDisplay:10.37,2013-02-21 11:10:00,
2013-02-21 06:20:00,42.8,36.7,30.00,SW,235,0.0,0.0,79,0.00,CLR,,0.00,WeatherDisplay:10.37,2013-02-21 11:20:00,
2013-02-21 06:25:00,42.6,36.9,30.03,SW,235,0.0,0.0,80,0.00,CLR,,0.00,WeatherDisplay:10.37,2013-02-21 11:25:00,
2013-02-21 06:30:00,42.4,36.7,30.03,SW,235,0.0,0.0,80,0.00,CLR,,0.00,WeatherDisplay:10.37,2013-02-21 11:30:00,
2013-02-21 06:40:00,43.2,37.4,30.03,SW,235,0.0,0.0,80,0.00,CLR,,0.00,WeatherDisplay:10.37,2013-02-21 11:40:00,
2013-02-21 06:50:00,43.0,36.9,30.03,SW,235,0.0,0.0,79,0.00,CLR,,0.00,WeatherDisplay:10.37,2013-02-21 11:50:00,
2013-02-21 06:55:00,42.8,36.7,30.03,SW,235,0.0,0.0,79,0.00,CLR,,0.00,WeatherDisplay:10.37,2013-02-21 11:55:00,
2013-02-21 07:05:00,42.8,36.7,30.03,SW,235,0.0,0.0,79,0.00,CLR,,0.00,WeatherDisplay:10.37,2013-02-21 12:05:00,
2013-02-21 07:10:00,42.8,36.7,30.03,SW,235,0.0,0.0,79,0.00,CLR,,0.00,WeatherDisplay:10.37,2013-02-21 12:10:00,
2013-02-21 07:20:00,43.2,37.4,30.03,SW,235,0.0,0.0,80,0.00,CLR,,0.00,WeatherDisplay:10.37,2013-02-21 12:20:00,
2013-02-21 07:30:00,43.2,37.7,30.03,SW,235,0.0,0.0,81,0.00,CLR,,0.00,WeatherDisplay:10.37,2013-02-21 12:30:00,
2013-02-21 07:40:00,43.5,38.1,30.03,SW,235,0.0,0.0,81,0.00,CLR,,0.00,WeatherDisplay:10.37,2013-02-21 12:40:00,
2013-02-21 07:50:00,45.1,39.7,30.06,SW,235,0.0,0.0,81,0.00,CLR,,0.00,WeatherDisplay:10.37,2013-02-21 12:50:00,
2013-02-21 08:00:00,46.2,41.0,30.06,SW,235,0.0,0.0,82,0.00,CLR,,0.00,WeatherDisplay:10.37,2013-02-21 13:00:00,
2013-02-21 08:06:00,46.6,41.1,30.06,SW,235,0.0,0.0,81,0.00,CLR,,0.00,WeatherDisplay:10.37,2013-02-21 13:06:00,
2013-02-21 08:15:00,46.6,41.1,30.06,SW,235,0.0,0.0,81,0.00,CLR,,0.00,WeatherDisplay:10.37,2013-02-21 13:15:00,
2013-02-21 08:20:00,46.6,41.1,30.06,SW,235,0.0,0.0,81,0.00,CLR,,0.00,WeatherDisplay:10.37,2013-02-21 13:20:00,
2013-02-21 08:26:00,47.8,42.3,30.06,SW,235,0.0,0.0,81,0.00,CLR,,0.00,WeatherDisplay:10.37,2013-02-21 13:26:00,
2013-02-21 08:35:00,55.9,49.5,30.06,East,81,0.0,0.0,79,0.00,CLR,,0.00,WeatherDisplay:10.37,2013-02-21 13:35:00,
2013-02-21 08:40:00,55.9,49.2,30.06,ENE,70,0.0,1.0,78,0.00,CLR,,0.00,WeatherDisplay:10.37,2013-02-21 13:40:00,
2013-02-21 08:50:00,67.6,59.1,30.06,ENE,70,0.0,0.0,74,0.00,CLR,,0.00,WeatherDisplay:10.37,2013-02-21 13:50:00,
2013-02-21 08:55:00,68.7,26.0,30.06,ENE,66,0.0,1.0,20,0.00,CLR,,0.00,WeatherDisplay:10.37,2013-02-21 13:55:00,
2013-02-21 09:05:00,68.7,26.0,30.06,ENE,65,2.0,5.0,20,0.00,CLR,,0.00,WeatherDisplay:10.37,2013-02-21 14:05:00,
2013-02-21 09:10:00,68.4,25.7,30.06,ENE,67,2.0,5.0,20,0.00,CLR,,0.00,WeatherDisplay:10.37,2013-02-21 14:10:00,
2013-02-21 09:20:00,70.2,27.2,30.06,ENE,72,3.0,5.0,20,0.00,CLR,,0.00,WeatherDisplay:10.37,2013-02-21 14:20:00,
2013-02-21 09:25:00,70.7,27.6,30.06,ENE,70,3.0,5.0,20,0.00,CLR,,0.00,WeatherDisplay:10.37,2013-02-21 14:25:00,
2013-02-21 09:35:00,66.0,23.8,30.09,East,79,2.0,4.0,20,0.00,CLR,,0.00,WeatherDisplay:10.37,2013-02-21 14:35:00,
2013-02-21 09:40:00,66.9,24.5,30.09,East,81,2.0,5.0,20,0.00,CLR,,0.00,WeatherDisplay:10.37,2013-02-21 14:40:00,
2013-02-21 09:50:00,68.0,25.4,30.09,ENE,74,2.0,4.0,20,0.00,CLR,,0.00,WeatherDisplay:10.37,2013-02-21 14:50:00,
2013-02-21 09:55:00,72.7,29.3,30.09,East,80,1.0,0.0,20,0.00,CLR,,0.00,WeatherDisplay:10.37,2013-02-21 14:55:00,
2013-02-21 10:05:00,70.2,27.2,30.06,ENE,65,2.0,5.0,20,0.00,CLR,,0.00,WeatherDisplay:10.37,2013-02-21 15:05:00,
2013-02-21 10:10:00,71.8,28.5,30.06,ENE,65,2.0,5.0,20,0.00,CLR,,0.00,WeatherDisplay:10.37,2013-02-21 15:10:00,
2013-02-21 10:20:00,71.2,28.1,30.06,ENE,63,3.0,3.0,20,0.00,CLR,,0.00,WeatherDisplay:10.37,2013-02-21 15:20:00,
2013-02-21 10:25:00,72.9,29.4,30.06,ENE,61,3.0,3.0,20,0.00,CLR,,0.00,WeatherDisplay:10.37,2013-02-21 15:25:00,
2013-02-21 10:35:00,74.7,30.9,30.06,ENE,65,2.0,3.0,20,0.00,CLR,,0.00,WeatherDisplay:10.37,2013-02-21 15:35:00,
2013-02-21 10:40:00,73.9,30.3,30.06,ENE,70,1.0,0.0,20,0.00,CLR,,0.00,WeatherDisplay:10.37,2013-02-21 15:40:00,
2013-02-21 10:50:00,72.7,29.3,30.06,East,89,1.0,4.0,20,0.00,CLR,,0.00,WeatherDisplay:10.37,2013-02-21 15:50:00,
2013-02-21 10:55:00,70.9,27.8,30.06,East,87,1.0,4.0,20,0.00,CLR,,0.00,WeatherDisplay:10.37,2013-02-21 15:55:00,
2013-02-21 11:05:00,72.5,29.1,30.06,East,85,1.0,5.0,20,0.00,CLR,,0.00,WeatherDisplay:10.37,2013-02-21 16:05:00,
2013-02-21 11:10:00,72.5,29.1,30.06,ENE,75,2.0,5.0,20,0.00,CLR,,0.00,WeatherDisplay:10.37,2013-02-21 16:10:00,
2013-02-21 11:20:00,72.5,29.1,30.06,NE,50,2.0,0.0,20,0.00,CLR,,0.00,WeatherDisplay:10.37,2013-02-21 16:20:00,
2013-02-21 11:25:00,73.9,30.3,30.06,NE,51,1.0,2.0,20,0.00,CLR,,0.00,WeatherDisplay:10.37,2013-02-21 16:25:00,
2013-02-21 11:30:00,72.9,29.4,30.06,ENE,58,1.0,6.0,20,0.00,CLR,,0.00,WeatherDisplay:10.37,2013-02-21 16:30:00,
2013-02-21 11:40:00,71.2,28.1,30.06,ENE,59,1.0,3.0,20,0.00,CLR,,0.00,WeatherDisplay:10.37,2013-02-21 16:40:00,
2013-02-21 11:50:00,73.9,30.3,30.06,SE,125,2.0,3.0,20,0.00,CLR,,0.00,WeatherDisplay:10.37,2013-02-21 16:50:00,
2013-02-21 11:55:00,75.2,31.3,30.06,ESE,119,2.0,3.0,20,0.00,CLR,,0.00,WeatherDisplay:10.37,2013-02-21 16:55:00,
2013-02-21 12:05:00,74.8,31.1,30.06,ENE,66,2.0,5.0,20,0.00,CLR,,0.00,WeatherDisplay:10.37,2013-02-21 17:05:00,
2013-02-21 12:10:00,75.7,31.8,30.06,ENE,71,2.0,4.0,20,0.00,CLR,,0.00,WeatherDisplay:10.37,2013-02-21 17:10:00,
2013-02-21 12:20:00,78.3,33.9,30.06,NE,35,2.0,2.0,20,0.00,CLR,,0.00,WeatherDisplay:10.37,2013-02-21 17:20:00,
2013-02-21 12:25:00,77.9,33.6,30.06,North,1,1.0,0.0,20,0.00,CLR,,0.00,WeatherDisplay:10.37,2013-02-21 17:25:00,
2013-02-21 12:35:00,76.1,32.1,30.03,ENE,70,0.0,0.0,20,0.00,CLR,,0.00,WeatherDisplay:10.37,2013-02-21 17:35:00,
2013-02-21 12:40:00,76.1,32.1,30.03,ENE,70,0.0,1.0,20,0.00,CLR,,0.00,WeatherDisplay:10.37,2013-02-21 17:40:00,
2013-02-21 12:50:00,77.2,33.0,30.03,ENE,64,1.0,2.0,20,0.00,CLR,,0.00,WeatherDisplay:10.37,2013-02-21 17:50:00,
2013-02-21 12:55:00,77.7,33.4,30.03,ENE,57,1.0,3.0,20,0.00,CLR,,0.00,WeatherDisplay:10.37,2013-02-21 17:55:00,
2013-02-21 13:05:00,76.5,32.4,30.03,ENE,57,3.0,6.0,20,0.00,CLR,,0.00,WeatherDisplay:10.37,2013-02-21 18:05:00,
2013-02-21 13:10:00,76.8,32.7,30.00,ENE,59,3.0,6.0,20,0.00,CLR,,0.00,WeatherDisplay:10.37,2013-02-21 18:10:00,
2013-02-21 13:20:00,78.8,34.3,30.00,East,91,2.0,4.0,20,0.00,CLR,,0.00,WeatherDisplay:10.37,2013-02-21 18:20:00,
2013-02-21 13:25:00,82.2,37.1,30.00,East,85,1.0,4.0,20,0.00,CLR,,0.00,WeatherDisplay:10.37,2013-02-21 18:25:00,
2013-02-21 13:35:00,79.9,35.2,30.00,ENE,64,1.0,1.0,20,0.00,CLR,,0.00,WeatherDisplay:10.37,2013-02-21 18:35:00,
2013-02-21 13:40:00,82.2,37.1,30.00,ENE,60,1.0,4.0,20,0.00,CLR,,0.00,WeatherDisplay:10.37,2013-02-21 18:40:00,
2013-02-21 13:50:00,80.6,35.8,30.00,NE,46,2.0,5.0,20,0.00,CLR,,0.00,WeatherDisplay:10.37,2013-02-21 18:50:00,
2013-02-21 13:55:00,80.8,36.0,30.00,NE,40,3.0,5.0,20,0.00,CLR,,0.00,WeatherDisplay:10.37,2013-02-21 18:55:00,
2013-02-21 14:05:00,81.3,36.4,29.97,NE,50,3.0,5.0,20,0.00,CLR,,0.00,WeatherDisplay:10.37,2013-02-21 19:05:00,
2013-02-21 14:10:00,81.3,36.4,29.97,ENE,58,2.0,3.0,20,0.00,CLR,,0.00,WeatherDisplay:10.37,2013-02-21 19:10:00,
2013-02-21 14:20:00,77.7,33.4,29.97,NE,55,3.0,6.0,20,0.00,CLR,,0.00,WeatherDisplay:10.37,2013-02-21 19:20:00,
2013-02-21 14:25:00,77.4,33.1,29.97,NE,54,3.0,6.0,20,0.00,CLR,,0.00,WeatherDisplay:10.37,2013-02-21 19:25:00,
2013-02-21 14:35:00,77.7,33.4,29.97,ENE,74,5.0,5.0,20,0.00,CLR,,0.00,WeatherDisplay:10.37,2013-02-21 19:35:00,
2013-02-21 14:40:00,77.7,33.4,29.97,ENE,64,5.0,5.0,20,0.00,CLR,,0.00,WeatherDisplay:10.37,2013-02-21 19:40:00,
2013-02-21 14:50:00,76.5,32.4,29.97,ENE,72,3.0,4.0,20,0.00,CLR,,0.00,WeatherDisplay:10.37,2013-02-21 19:50:00,
2013-02-21 14:55:00,77.5,33.3,29.97,NE,54,3.0,7.0,20,0.00,CLR,,0.00,WeatherDisplay:10.37,2013-02-21 19:55:00,
2013-02-21 15:05:00,75.4,31.5,29.97,ENE,60,5.0,5.0,20,0.00,CLR,,0.00,WeatherDisplay:10.37,2013-02-21 20:05:00,
2013-02-21 15:10:00,75.4,31.5,29.97,ENE,60,5.0,6.0,20,0.00,CLR,,0.00,WeatherDisplay:10.37,2013-02-21 20:10:00,
2013-02-21 15:20:00,76.1,32.1,29.97,NE,47,5.0,7.0,20,0.00,CLR,,0.00,WeatherDisplay:10.37,2013-02-21 20:20:00,
2013-02-21 15:25:00,75.9,31.9,29.97,NE,48,5.0,7.0,20,0.00,CLR,,0.00,WeatherDisplay:10.37,2013-02-21 20:25:00,
2013-02-21 15:30:00,75.4,31.5,29.97,NE,56,5.0,8.0,20,0.00,CLR,,0.00,WeatherDisplay:10.37,2013-02-21 20:30:00,
2013-02-21 15:40:00,75.0,31.2,29.97,East,91,5.0,7.0,20,0.00,CLR,,0.00,WeatherDisplay:10.37,2013-02-21 20:40:00,
2013-02-21 15:50:00,74.8,31.1,29.97,ENE,57,3.0,6.0,20,0.00,CLR,,0.00,WeatherDisplay:10.37,2013-02-21 20:50:00,
2013-02-21 15:55:00,74.3,30.6,29.97,ENE,64,2.0,7.0,20,0.00,CLR,,0.00,WeatherDisplay:10.37,2013-02-21 20:55:00,
2013-02-21 16:00:00,72.7,29.3,29.97,ENE,71,2.0,8.0,20,0.00,CLR,,0.00,WeatherDisplay:10.37,2013-02-21 21:00:00,
2013-02-21 16:10:00,75.6,31.6,29.94,NE,56,5.0,6.0,20,0.00,CLR,,0.00,WeatherDisplay:10.37,2013-02-21 21:10:00,
2013-02-21 16:20:00,74.1,30.5,29.94,NE,45,3.0,3.0,20,0.00,CLR,,0.00,WeatherDisplay:10.37,2013-02-21 21:20:00,
2013-02-21 16:25:00,73.0,29.6,29.94,ENE,66,2.0,3.0,20,0.00,CLR,,0.00,WeatherDisplay:10.37,2013-02-21 21:25:00,
2013-02-21 16:30:00,72.0,28.7,29.94,NE,50,2.0,3.0,20,0.00,CLR,,0.00,WeatherDisplay:10.37,2013-02-21 21:30:00,
2013-02-21 16:40:00,72.7,29.3,29.97,NE,50,5.0,9.0,20,0.00,CLR,,0.00,WeatherDisplay:10.37,2013-02-21 21:40:00,
2013-02-21 16:50:00,70.7,27.6,29.94,NE,54,6.0,6.0,20,0.00,CLR,,0.00,WeatherDisplay:10.37,2013-02-21 21:50:00,
2013-02-21 16:55:00,70.2,27.2,29.94,NE,52,6.0,7.0,20,0.00,CLR,,0.00,WeatherDisplay:10.37,2013-02-21 21:55:00,
2013-02-21 17:05:00,70.2,27.2,29.94,NE,53,5.0,6.0,20,0.00,CLR,,0.00,WeatherDisplay:10.37,2013-02-21 22:05:00,
2013-02-21 17:10:00,69.3,26.4,29.97,NE,53,5.0,5.0,20,0.00,CLR,,0.00,WeatherDisplay:10.37,2013-02-21 22:10:00,
2013-02-21 17:20:00,68.7,26.0,29.97,ENE,63,3.0,6.0,20,0.00,CLR,,0.00,WeatherDisplay:10.37,2013-02-21 22:20:00,
2013-02-21 17:25:00,68.4,25.7,29.97,ENE,70,3.0,3.0,20,0.00,CLR,,0.00,WeatherDisplay:10.37,2013-02-21 22:25:00,
2013-02-21 17:35:00,68.7,26.0,29.97,South,169,1.0,0.0,20,0.00,CLR,,0.00,WeatherDisplay:10.37,2013-02-21 22:35:00,
2013-02-21 17:40:00,68.5,25.8,29.97,SSW,204,1.0,2.0,20,0.00,CLR,,0.00,WeatherDisplay:10.37,2013-02-21 22:40:00,
2013-02-21 17:50:00,68.2,25.5,29.97,ENE,60,1.0,3.0,20,0.00,CLR,,0.00,WeatherDisplay:10.37,2013-02-21 22:50:00,
2013-02-21 17:55:00,67.6,25.1,29.94,ENE,66,2.0,4.0,20,0.00,CLR,,0.00,WeatherDisplay:10.37,2013-02-21 22:55:00,
2013-02-21 18:05:00,66.2,23.9,29.97,NE,53,1.0,0.0,20,0.00,CLR,,0.00,WeatherDisplay:10.37,2013-02-21 23:05:00,
2013-02-21 18:10:00,65.3,23.2,29.97,NE,47,1.0,5.0,20,0.00,CLR,,0.00,WeatherDisplay:10.37,2013-02-21 23:10:00,
2013-02-21 18:20:00,63.9,22.0,29.97,ENE,63,1.0,1.0,20,0.00,CLR,,0.00,WeatherDisplay:10.37,2013-02-21 23:20:00,
2013-02-21 18:25:00,63.5,21.7,29.97,ENE,60,1.0,0.0,20,0.00,CLR,,0.00,WeatherDisplay:10.37,2013-02-21 23:25:00,
2013-02-21 18:35:00,63.1,21.4,29.97,NE,49,0.0,0.0,20,0.00,CLR,,0.00,WeatherDisplay:10.37,2013-02-21 23:35:00,
2013-02-21 18:40:00,63.1,21.4,29.97,NE,45,0.0,0.0,20,0.00,CLR,,0.00,WeatherDisplay:10.37,2013-02-21 23:40:00,
2013-02-21 18:50:00,63.1,21.4,29.97,NE,50,0.0,0.0,20,0.00,CLR,,0.00,WeatherDisplay:10.37,2013-02-21 23:50:00,
2013-02-21 18:55:00,62.2,20.6,29.97,NE,50,0.0,0.0,20,0.00,CLR,,0.00,WeatherDisplay:10.37,2013-02-21 23:55:00,
2013-02-21 19:05:00,62.2,20.6,29.97,NE,48,0.0,0.0,20,0.00,CLR,,0.00,WeatherDisplay:10.37,2013-02-22 00:05:00,
2013-02-21 19:10:00,62.2,20.6,29.97,NE,46,0.0,0.0,20,0.00,CLR,,0.00,WeatherDisplay:10.37,2013-02-22 00:10:00,
2013-02-21 19:20:00,62.1,21.6,29.97,NE,45,0.0,0.0,21,0.00,CLR,,0.00,WeatherDisplay:10.37,2013-02-22 00:20:00,
2013-02-21 19:25:00,61.9,22.6,29.97,NE,45,0.0,0.0,22,0.00,CLR,,0.00,WeatherDisplay:10.37,2013-02-22 00:25:00,
2013-02-21 19:30:00,61.9,22.6,29.97,NE,45,0.0,0.0,22,0.00,CLR,,0.00,WeatherDisplay:10.37,2013-02-22 00:30:00,
2013-02-21 19:40:00,61.5,22.3,29.97,NE,45,0.0,0.0,22,0.00,CLR,,0.00,WeatherDisplay:10.37,2013-02-22 00:40:00,
2013-02-21 19:50:00,61.0,21.8,29.97,NE,45,0.0,0.0,22,0.00,CLR,,0.00,WeatherDisplay:10.37,2013-02-22 00:50:00,
2013-02-21 19:55:00,60.8,22.7,29.97,NE,45,0.0,0.0,23,0.00,CLR,,0.00,WeatherDisplay:10.37,2013-02-22 00:55:00,
2013-02-21 20:05:00,60.8,22.7,29.97,NE,45,0.0,0.0,23,0.00,CLR,,0.00,WeatherDisplay:10.37,2013-02-22 01:05:00,
2013-02-21 20:10:00,59.5,24.6,29.97,NE,45,0.0,0.0,26,0.00,CLR,,0.00,WeatherDisplay:10.37,2013-02-22 01:10:00,
2013-02-21 20:20:00,58.8,26.6,29.97,NE,45,0.0,0.0,29,0.00,CLR,,0.00,WeatherDisplay:10.37,2013-02-22 01:20:00,
2013-02-21 20:25:00,58.5,27.1,29.97,NE,45,0.0,0.0,30,0.00,CLR,,0.00,WeatherDisplay:10.37,2013-02-22 01:25:00,
2013-02-21 20:35:00,58.3,27.7,29.97,NE,45,0.0,0.0,31,0.00,CLR,,0.00,WeatherDisplay:10.37,2013-02-22 01:35:00,
2013-02-21 20:40:00,58.1,28.4,29.97,NE,45,0.0,0.0,32,0.00,CLR,,0.00,WeatherDisplay:10.37,2013-02-22 01:40:00,
2013-02-21 20:50:00,57.9,29.7,29.97,NE,45,0.0,0.0,34,0.00,CLR,,0.00,WeatherDisplay:10.37,2013-02-22 01:50:00,
2013-02-21 20:55:00,57.7,30.2,29.97,NE,45,0.0,0.0,35,0.00,CLR,,0.00,WeatherDisplay:10.37,2013-02-22 01:55:00,
2013-02-21 21:05:00,57.4,30.6,29.97,NE,45,0.0,0.0,36,0.00,CLR,,0.00,WeatherDisplay:10.37,2013-02-22 02:05:00,
2013-02-21 21:10:00,57.4,31.3,29.97,NE,45,0.0,0.0,37,0.00,CLR,,0.00,WeatherDisplay:10.37,2013-02-22 02:10:00,
2013-02-21 21:20:00,57.2,31.1,29.97,NE,45,0.0,0.0,37,0.00,CLR,,0.00,WeatherDisplay:10.37,2013-02-22 02:20:00,
2013-02-21 21:25:00,57.2,31.8,29.97,NE,45,0.0,0.0,38,0.00,CLR,,0.00,WeatherDisplay:10.37,2013-02-22 02:25:00,
2013-02-21 21:35:00,57.2,33.1,29.97,NE,45,0.0,0.0,40,0.00,CLR,,0.00,WeatherDisplay:10.37,2013-02-22 02:35:00,
2013-02-21 21:40:00,57.2,33.1,29.97,NE,45,0.0,0.0,40,0.00,CLR,,0.00,WeatherDisplay:10.37,2013-02-22 02:40:00,
2013-02-21 21:50:00,57.4,33.9,29.97,NE,45,0.0,0.0,41,0.00,CLR,,0.00,WeatherDisplay:10.37,2013-02-22 02:50:00,
2013-02-21 21:55:00,57.4,33.9,29.97,NE,45,0.0,0.0,41,0.00,CLR,,0.00,WeatherDisplay:10.37,2013-02-22 02:55:00,
2013-02-21 22:05:00,57.4,34.5,29.97,NE,45,0.0,0.0,42,0.00,CLR,,0.00,WeatherDisplay:10.37,2013-02-22 03:05:00,
2013-02-21 22:10:00,57.7,34.8,29.97,NE,45,0.0,0.0,42,0.00,CLR,,0.00,WeatherDisplay:10.37,2013-02-22 03:10:00,
2013-02-21 22:20:00,58.1,35.1,29.97,NE,45,0.0,0.0,42,0.00,CLR,,0.00,WeatherDisplay:10.37,2013-02-22 03:20:00,
2013-02-21 22:25:00,58.3,35.3,29.97,NE,45,0.0,0.0,42,0.00,CLR,,0.00,WeatherDisplay:10.37,2013-02-22 03:25:00,
2013-02-21 22:35:00,59.0,35.3,29.97,NE,45,0.0,0.0,41,0.00,CLR,,0.00,WeatherDisplay:10.37,2013-02-22 03:35:00,
2013-02-21 22:40:00,59.4,35.6,29.97,NE,45,0.0,0.0,41,0.00,CLR,,0.00,WeatherDisplay:10.37,2013-02-22 03:40:00,
2013-02-21 22:50:00,59.4,35.0,29.97,NE,45,0.0,0.0,40,0.00,CLR,,0.00,WeatherDisplay:10.37,2013-02-22 03:50:00,
2013-02-21 22:55:00,59.4,35.0,29.97,NE,45,0.0,0.0,40,0.00,CLR,,0.00,WeatherDisplay:10.37,2013-02-22 03:55:00,
2013-02-21 23:05:00,59.4,35.6,29.97,NE,45,0.0,0.0,41,0.00,CLR,,0.00,WeatherDisplay:10.37,2013-02-22 04:05:00,
2013-02-21 23:10:00,59.2,35.5,29.97,NE,45,0.0,0.0,41,0.00,CLR,,0.00,WeatherDisplay:10.37,2013-02-22 04:10:00,
2013-02-21 23:20:00,58.5,35.4,29.97,NE,45,0.0,0.0,42,0.00,CLR,,0.00,WeatherDisplay:10.37,2013-02-22 04:20:00,
2013-02-21 23:25:00,58.5,36.0,29.97,NE,45,0.0,0.0,43,0.00,CLR,,0.00,WeatherDisplay:10.37,2013-02-22 04:25:00,
2013-02-21 23:35:00,57.9,36.7,29.97,NE,45,0.0,0.0,45,0.00,CLR,,0.00,WeatherDisplay:10.37,2013-02-22 04:35:00,
2013-02-21 23:40:00,57.9,36.7,29.97,NE,45,0.0,0.0,45,0.00,CLR,,0.00,WeatherDisplay:10.37,2013-02-22 04:40:00,
2013-02-21 23:50:00,58.1,36.9,29.97,NE,45,0.0,0.0,45,0.00,CLR,,0.00,WeatherDisplay:10.37,2013-02-22 04:50:00,
2013-02-21 23:55:00,58.1,36.9,29.97,NE,45,0.0,0.0,45,0.00,CLR,,0.00,WeatherDisplay:10.37,2013-02-22 04:55:00,